Regional Weather Roundup
Issued by NWS

Home | Current Version | Previous Version | Graphics & Text | Print | Product List | Glossary On
Versions: 1 2 3 4 5 6 7 8 9 10 11 12 13 14 15 16 17 18 19 20 21 22 23 24 25 26 27 28 29 30 31 32 33 34 35 36 37 38 39 40 41 42 43 44 45 46 47 48 49 50
778
ASUS43 KMKX 230010
RWRWI

WISCONSIN REGIONAL WEATHER ROUNDUP
NATIONAL WEATHER SERVICE MILWAUKEE/SULLIVAN WI
600 PM CST SUN JAN 22 2017

NOTE: "FAIR" INDICATES FEW OR NO CLOUDS BELOW 12,000 FEET WITH NO
SIGNIFICANT WEATHER AND/OR OBSTRUCTIONS TO VISIBILITY.

WIZ001-002-006>008-014>016-023>028-230100-
NORTHWEST WISCONSIN

CITY           SKY/WX    TMP DP  RH WIND       PRES   REMARKS
SUPERIOR ARPT  CLOUDY    36  35  98 CALM      29.73R
6HR MIN TEMP:  36; 6HR MAX TEMP:  38;

ASHLAND        FOG       34  34 100 CALM      29.73R VSB 1/4
6HR MIN TEMP:  34; 6HR MAX TEMP:  37;

HAYWARD        LGT RAIN  36  34  92 CALM      29.71R FOG
6HR MIN TEMP:  36; 6HR MAX TEMP:  38; 6HR PCP: TRACE;

SIREN          CLOUDY    36  36  99 CALM      29.73S FOG
6HR MIN TEMP:  36; 6HR MAX TEMP:  38;

CUMBERLAND     FOG       34  32  93 CALM      29.71S VSB 3/4
RICE LAKE      CLOUDY    36  35  98 CALM      29.73R FOG
6HR MIN TEMP:  36; 6HR MAX TEMP:  37;

CHETEK         CLOUDY    35  35  99 CALM      29.72R FOG
6HR MIN TEMP:  35; 6HR MAX TEMP:  36;

LADYSMITH      CLOUDY    36  35  97 NW6       29.72R WCI  31
6HR MIN TEMP:  36; 6HR MAX TEMP:  37;

EAU CLAIRE     CLOUDY    34  34 100 CALM      29.72R
6HR MIN TEMP:  34; 6HR MAX TEMP:  37;

MENOMONIE        N/A    N/A N/A N/A MISG        N/A
NEW RICHMOND   CLOUDY    35  35 100 CALM      29.74R
6HR MIN TEMP:  35; 6HR MAX TEMP:  37;

OSCEOLA        CLOUDY    37  37 100 W5        29.77R WCI  34
6HR MIN TEMP:  37; 6HR MAX TEMP:  39;

$$

WIZ003>005-009-010-017-018-230100-
NORTH CENTRAL WISCONSIN

CITY           SKY/WX    TMP DP  RH WIND       PRES   REMARKS
MANITOWISH WTR CLOUDY    33  33 100 NW5       29.67S WCI  28
6HR MIN TEMP:  33; 6HR MAX TEMP:  35;

ARBOR VITAE    CLOUDY    37  36  96 N3        29.68R
6HR MIN TEMP:  37; 6HR MAX TEMP:  37;

WOODRUFF       CLOUDY    37  36  96 N3        29.68R
6HR MIN TEMP:  37; 6HR MAX TEMP:  37;

RHINELANDER    CLOUDY    36  36 100 CALM      29.67R FOG
6HR MIN TEMP:  36; 6HR MAX TEMP:  39;

EAGLE RIVER    CLOUDY    35  35 100 N5        29.67R WCI  30
6HR MIN TEMP:  34; 6HR MAX TEMP:  37;

LAND O LAKES   CLOUDY    35  35 100 NW3       29.68R
6HR MIN TEMP:  35; 6HR MAX TEMP:  38;

PHILLIPS       CLOUDY    34  34 100 CALM      29.68R
6HR MIN TEMP:  33; 6HR MAX TEMP:  35;

TOMAHAWK       CLOUDY    35  34  96 NW3       29.69R FOG
6HR MIN TEMP:  35; 6HR MAX TEMP:  37;

MEDFORD        FOG       34  34 100 NW5       29.68R VSB 3/4 WCI  30
6HR MIN TEMP:  34; 6HR MAX TEMP:  35;

MERRILL        CLOUDY    37  37 100 CALM        N/A
6HR MIN TEMP:  37; 6HR MAX TEMP:  38;

$$

WIZ029-030-035-036-043>047-230100-
CENTRAL WISCONSIN

CITY           SKY/WX    TMP DP  RH WIND       PRES   REMARKS
WAUSAU         CLOUDY    36  35  96 NW3       29.67R FOG
6HR MIN TEMP:  35; 6HR MAX TEMP:  37;

MOSINEE        CLOUDY    36  36 100 NW6       29.69R FOG     WCI  31
MARSHFIELD     CLOUDY    35  33  92 NW9       29.68R FOG     WCI  28
6HR MIN TEMP:  35; 6HR MAX TEMP:  36;

STEVENS POINT  CLOUDY    35  35 100 CALM      29.69R
6HR MIN TEMP:  35; 6HR MAX TEMP:  36;

WAUPACA        CLOUDY    39  38  99 CALM      29.68S
6HR MIN TEMP:  38; 6HR MAX TEMP:  40;

WAUTOMA        CLOUDY    36  35  96 W3        29.69S
6HR MIN TEMP:  36; 6HR MAX TEMP:  39;

WISC RAPIDS    CLOUDY    37  36  96 NW8       29.70R WCI  31
6HR MIN TEMP:  36; 6HR MAX TEMP:  38;

CAMP DOUGLAS   CLOUDY    36  36 100 W6        29.70R WCI  31
6HR MIN TEMP:  36; 6HR MAX TEMP:  38;

$$

WIZ011>013-019>022-031-037>040-048>050-230100-
NORTHEAST WISCONSIN

CITY           SKY/WX    TMP DP  RH WIND       PRES   REMARKS
ANTIGO         CLOUDY    35  35 100 NW5       29.67R WCI  31
6HR MIN TEMP:  34; 6HR MAX TEMP:  36;

SHAWANO        CLOUDY    39  38  96 CALM      29.68R
6HR MIN TEMP:  39; 6HR MAX TEMP:  41;

OCONTO         CLOUDY    34  34  99 CALM      29.68R VSB 1/4
6HR MIN TEMP:  34; 6HR MAX TEMP:  38;

STURGEON BAY   FOG       36  36 100 CALM      29.68R VSB 1/4
6HR MIN TEMP:  36; 6HR MAX TEMP:  39;

GREEN BAY      FOG       38  37  97 CALM      29.68R VSB 1/4
6HR MIN TEMP:  38; 6HR MAX TEMP:  40;

MANITOWOC      CLOUDY    36  36 100 MISG      29.69R FOG
6HR MIN TEMP:  36; 6HR MAX TEMP:  40;

APPLETON       CLOUDY    36  36 100 W3        29.66R FOG
CLINTONVILLE   CLOUDY    36  36 100 CALM      29.68R
OSHKOSH        CLOUDY    37  35  92 W5        29.68R WCI  33
6HR MIN TEMP:  37; 6HR MAX TEMP:  40;

$$

WIZ032>034-041-042-053>061-230100-
SOUTHWEST WISCONSIN

CITY           SKY/WX    TMP DP  RH WIND       PRES   REMARKS
LA CROSSE      CLOUDY    39  34  82 NW8       29.73R WCI  33
6HR MIN TEMP:  39; 6HR MAX TEMP:  41;

SPARTA         CLOUDY    35  35 100 NW6       29.73R FOG     WCI  30
6HR MIN TEMP:  35; 6HR MAX TEMP:  36;

VIROQUA        CLOUDY    34  34 100 NW6       29.70R VSB 1/2 WCI  29
6HR MIN TEMP:  34; 6HR MAX TEMP:  36;

BOSCOBEL       CLOUDY    39  36  89 VRB5      29.73R
6HR MIN TEMP:  38; 6HR MAX TEMP:  41;

PRAIRIE DU CHI CLOUDY    37  35  92 W3        29.73R
6HR MIN TEMP:  37; 6HR MAX TEMP:  38;

PLATTEVILLE    CLOUDY    37  37 100 NW6       29.70R WCI  33
6HR MIN TEMP:  37; 6HR MAX TEMP:  41;

$$

WIZ056-057-062-063-064-067-068-230100-
SOUTH CENTRAL WISCONSIN

CITY           SKY/WX    TMP DP  RH WIND       PRES   REMARKS
REEDSBURG      CLOUDY    37  37 100 CALM      29.70R
6HR MIN TEMP:  37; 6HR MAX TEMP:  38;

BARABOO/DELLS  CLOUDY    36  36  99 NW3       29.69R
6HR MIN TEMP:  36; 6HR MAX TEMP:  37;

LONE ROCK      CLOUDY    37  35  92 W5        29.71R WCI  33
6HR MIN TEMP:  37; 6HR MAX TEMP:  40;

MINERAL POINT  CLOUDY    37  37 100 NW5       29.69R FOG     WCI  34
MADISON        CLOUDY    38  37  97 NW5       29.69R WCI  34
6HR MIN TEMP:  38; 6HR MAX TEMP:  41;

MIDDLETON      CLOUDY    38  38 100 NW3       29.69R
6HR MIN TEMP:  38; 6HR MAX TEMP:  42;

WATERTOWN      CLOUDY    38  38 100 NW3       29.68R
6HR MIN TEMP:  38; 6HR MAX TEMP:  41;

MONROE         CLOUDY    37  36  93 N6        29.67R WCI  33
JANESVILLE     CLOUDY    39  39 100 CALM      29.67R FOG
$$

WIZ051-052-058>065-066-070>072-230100-
SOUTHEAST WISCONSIN

CITY           SKY/WX    TMP DP  RH WIND       PRES   REMARKS
MILWAUKEE      CLOUDY    42  37  82 NW6       29.67R
6HR MIN TEMP:  42; 6HR MAX TEMP:  46;

WAUKESHA       PTCLDY    36  34  93 NW3       29.68R
MILWAUKEE/TIMM MOCLDY    36  32  87 NW5       29.68R WCI  32
RACINE         CLOUDY    39  37  92 N5        29.68R
6HR MIN TEMP:  38; 6HR MAX TEMP:  46;

KENOSHA        CLOUDY    40  36  86 N3        29.66S
6HR MIN TEMP:  38; 6HR MAX TEMP:  44;

FOND DU LAC    CLOUDY    38  34  85 CALM      29.68R
6HR MIN TEMP:  37; 6HR MAX TEMP:  41; 6HR PCP: TRACE;

SHEBOYGAN      CLOUDY    37  36  96 CALM      29.68R
6HR MIN TEMP:  37; 6HR MAX TEMP:  45;

WEST BEND      CLOUDY    36  36 100 NW5       29.68R WCI  32
JUNEAU         CLOUDY    37  36  93 CALM      29.69R
6HR MIN TEMP:  37; 6HR MAX TEMP:  40;

$$

LSZ147-162-230100-
LAKE SUPERIOR

STATION/POSITION TIME  TEMP    WIND        PRES    WAVE
                       AIR SEA DIR/SP/G            HT/PER
                 (UTC) (F)     (DEG/KT/KT) (MB)    (FT/S)
DEVILS ISLAND    2300   35     220/  4/  5 1006.6R
PORT WING        2330   36     200/  2/  3 1006.8R
SAXON HARBOR     2340   34     300/  2/  3 1006.4R
$$

LMZ867-665-643>646-230100-
LAKE MICHIGAN

STATION/POSITION TIME  TEMP    WIND        PRES    WAVE
                       AIR SEA DIR/SP/G            HT/PER
                 (UTC) (F)     (DEG/KT/KT) (MB)    (FT/S)
NORTHPORT PIER   2340   35        CALM     1005.1R
SISTER BAY       2305   34        CALM       N/A
KEWAUNEE LAKE



USA.gov is the U.S. government's official web portal to all federal, state and local government web resources and services.